GSAT-9

Last updated on Tue Jul 08 2025 00:02:47 GMT+0000 (Coordinated Universal Time)

1 42695U 17024A 25188.58287458 -.00000269 00000+0 00000+0 0 9997 2 42695 0.0663 104.2696 0002293 1.1722 127.4784 1.00268389 29843
UTC large
Height (km)
Speed (km/s)
/
Latitude / Longitude
Inclination (degrees)
Orbital Period (minutes)
Azimuth
Elevation
Range (km)
Doppler Factor

Next 0 passes for location: London (51.5072 / 0.1276)

Sorry there are no passes over London.